STARLINK-32824, 62817

Orbit data source: Space-Track

STARLINK-32824, 62817 is a payload satellite owned by SpaceX/Seattle (US) in LEO that was launched on Fri, 24 Jan 2025 UTC via an FALCON 9 launch vehicle from the Air Force Western Test Range (AFWTR). Payload-class satellites include a variety of spacecraft equipped with specific instruments for various scientific and technological missions. These include communications satellites like Starlink; space stations such as the ISS; scientific satellites like the Hubble; Earth observation satellites from companies like Planet Labs, Umbra, and HawkEye 360; GPS; miniature CubeSats for education and research; and military/defense satellites.

Loading next visibility...
Identifier
62817, 2025-018M
Orbit
LEO
Country
Flag of USUS
Related business
Manufacturer
SpaceX/Seattle
Mission
Operational Commercial Communications
Bus & Motor
STARLINK V2M, Unknown motor
Mass
730 kg wet, ~700 kg dry
Launch date (UTC)
2025-01-24 (7 months ago)
Launch vehicle
FALCON 9
Launch site
Air Force Western Test Range (AFWTR)
Object type
Payload
Rocket body
Debris
Shape & HBR
Box + 2 Pan, 14.5 m
Radar Cross Section
33.884 m², Large (>1 m²)

Expand to show TLE details & history
Last TLE update: 12 hours ago

TLE from 12 hours ago
0 STARLINK-32824
1 62817U 25018M   25243.37839415  .00045899  00000-0  15512-2 0  9997
2 62817  53.1590 113.3739 0001106  80.5367 279.5759 15.30222630 34985
Epoch: 2025-08-31T09:04Z
TLE epoch observation values (Epoch: 2025-08-31T09:04:53.254Z)
Latitude
-0°
Longitude
-2.64719°
Altitude
475.921 km
Speed
7.629 km/s
True Right ascension
07h 33m 29s
True Declination
0° 00' 00"
Sunlit
Object was in daylight at epoch
Visualization orbit readout
Latitude
Unknown
Longitude
Unknown
Altitude
Unknown
Speed
Unknown
Apparent Right ascension
Unknown
Apparent Declination
Unknown
Sunlit
N/A
Visualization observer readout
Local Sidereal Time
12:17:55
Azimuth
Unknown
Elevation
Unknown
Doppler factor
Unknown
Orbital elements
Apogee altitude
476.162 km
Perigee altitude
474.646 km
Semi-major axis
6,853.541 km
Eccentricity
0.00011
Inclination
53.159°
RAAN
113.3739°
Arg. of periapsis
80.5367°
True anomaly
279.5634°
Mean anomaly
279.5759°
Eccentric anomaly
279.56965°
Mean motion
3.82535 °/min
Orbital period
94.11 mins
BSTAR
0.0015512
Loading maneuver chart data...
Computing Atmospheric mass density...
Loading historical data...
Loading historical data...
Loading historical data...
Loading historical data...
Loading historical data...
Loading historical data...
Loading historical data...

Documentation

Showing up to 5 results
|